Location: Sabalos
(43.2860°N, 0.1414°E)
Time: 04:26:32
(UTC+00:00)

Genesis I - Pass Details

Date: 05 July 2020
Orbit: 509 x 513 km, 64.5° (Epoch: 06 August)

Event Time Altitude Azimuth Distance (km) Brightness Sun altitude
Exits shadow 22:18:36 33° 86° (E) 886 4.1 -19.7°
Drops below altitude 10° 22:21:19 10° 50° (NE) 1,737 6.0 -19.9°
Sets 22:23:36 0° 42° (NE) 2,626 7.1 -20.1°
